QPF
0.02 0.05 0.06 0.07 0.09 0.09 0.11 0.11 0.11 0.09 0.08 0.05 0.02 0.00 0.00 0.00 0.00 0.00 0.00 0.00 0.00 0.00 0.00 0.00 0.00 0.00 0.00 0.00 0.00 0.00 0.00 0.00 0.00 0.00 0.00 0.00 0.00 0.00
0.02 0.03 0.04 0.05 0.08 0.09 0.10 0.12 0.11 0.09 0.08 0.06 0.04 0.01 0.01 0.00 0.00 0.00 0.00 0.00 0.00 0.00 0.00 0.00 0.00 0.00 0.00 0.00 0.00 0.00 0.00 0.00 0.00 0.00 0.00 0.00 0.00 0.01
0.01 0.02 0.03 0.04 0.06 0.07 0.09 0.09 0.10 0.10 0.09 0.09 0.07 0.04 0.02 0.01 0.01 0.00 0.00 0.00 0.00 0.00 0.00 0.00 0.00 0.00 0.00 0.00 0.00 0.00 0.00 0.00 0.00 0.00 0.00 0.00 0.00 0.00
0.01 0.02 0.03 0.05 0.06 0.07 0.08 0.08 0.11 0.12 0.12 0.12 0.12 0.09 0.05 0.04 0.02 0.01 0.01 0.01 0.00 0.00 0.00 0.00 0.00 0.00 0.00 0.00 0.00 0.00 0.00 0.00 0.00 0.00 0.00 0.00 0.00 0.00
0.00 0.01 0.02 0.03 0.06 0.08 0.08 0.08 0.11 0.13 0.13 0.13 0.15 0.15 0.11 0.07 0.04 0.03 0.03 0.02 0.01 0.01 0.00 0.00 0.00 0.00 0.00 0.00 0.00 0.00 0.00 0.00 0.00 0.00 0.00 0.00 0.00 0.00
0.00 0.00 0.01 0.02 0.04 0.06 0.06 0.07 0.11 0.13 0.16 0.17 0.17 0.17 0.16 0.12 0.08 0.06 0.05 0.03 0.02 0.02 0.01 0.00 0.00 0.00 0.00 0.00 0.00 0.00 0.00 0.00 0.00 0.00 0.00 0.00 0.00 0.00
0.00 0.00 0.00 0.01 0.01 0.02 0.03 0.05 0.08 0.11 0.14 0.15 0.16 0.17 0.17 0.17 0.13 0.10 0.09 0.07 0.04 0.02 0.01 0.01 0.00 0.00 0.00 0.00 0.00 0.00 0.00 0.00 0.00 0.00 0.00 0.00 0.00 0.00
0.01 0.01 0.01 0.00 0.01 0.01 0.01 0.02 0.04 0.06 0.10 0.13 0.15 0.15 0.17 0.19 0.20 0.18 0.14 0.11 0.07 0.04 0.02 0.02 0.01 0.00 0.01 0.01 0.00 0.00 0.00 0.00 0.00 0.00 0.00 0.00 0.00 0.00
0.03 0.02 0.01 0.00 0.00 0.00 0.01 0.01 0.02 0.02 0.03 0.07 0.11 0.14 0.18 0.19 0.19 0.19 0.18 0.18 0.16 0.13 0.08 0.05 0.03 0.01 0.01 0.00 0.00 0.00 0.00 0.00 0.00 0.00 0.00 0.00 0.00 0.00
0.05 0.03 0.02 0.01 0.01 0.01 0.01 0.01 0.01 0.01 0.01 0.02 0.04 0.06 0.09 0.13 0.16 0.17 0.19 0.20 0.18 0.15 0.12 0.09 0.06 0.04 0.02 0.01 0.00 0.00 0.00 0.00 0.00 0.00 0.00 0.00 0.00 0.00
0.06 0.05 0.04 0.03 0.03 0.02 0.01 0.02 0.03 0.01 0.00 0.01 0.02 0.04 0.06 0.06 0.07 0.10 0.13 0.15 0.15 0.14 0.11 0.08 0.06 0.05 0.02 0.01 0.00 0.00 0.00 0.00 0.00 0.00 0.00 0.00 0.00 0.00
0.08 0.05 0.06 0.05 0.04 0.02 0.01 0.02 0.04 0.02 0.01 0.01 0.01 0.01 0.02 0.03 0.04 0.06 0.11 0.15 0.16 0.15 0.13 0.10 0.07 0.06 0.04 0.03 0.01 0.01 0.00 0.00 0.00 0.00 0.00 0.00 0.00 0.00
0.09 0.08 0.07 0.09 0.04 0.03 0.02 0.01 0.02 0.01 0.01 0.01 0.01 0.01 0.01 0.02 0.02 0.02 0.05 0.07 0.10 0.11 0.11 0.08 0.08 0.07 0.06 0.04 0.03 0.02 0.01 0.01 0.01 0.01 0.01 0.01 0.01 0.00
0.08 0.07 0.07 0.09 0.06 0.04 0.02 0.02 0.02 0.01 0.01 0.01 0.02 0.02 0.02 0.02 0.01 0.01 0.02 0.03 0.04 0.07 0.09 0.07 0.06 0.06 0.06 0.05 0.04 0.03 0.03 0.03 0.03 0.03 0.03 0.03 0.03 0.02
0.06 0.07 0.06 0.05 0.04 0.03 0.03 0.02 0.02 0.01 0.02 0.03 0.04 0.02 0.01 0.01 0.01 0.01 0.01 0.01 0.01 0.01 0.01 0.02 0.03 0.03 0.04 0.04 0.04 0.04 0.04 0.04 0.05 0.04 0.04 0.04 0.04 0.04
0.07 0.08 0.06 0.04 0.03 0.02 0.01 0.02 0.01 0.01 0.02 0.03 0.03 0.02 0.01 0.01 0.02 0.01 0.01 0.01 0.02 0.02 0.01 0.01 0.01 0.02 0.03 0.03 0.03 0.03 0.03 0.03 0.03 0.04 0.05 0.06 0.07 0.07
0.03 0.04 0.04 0.03 0.03 0.03 0.03 0.02 0.02 0.03 0.03 0.03 0.03 0.02 0.02 0.02 0.02 0.01 0.01 0.01 0.02 0.02 0.02 0.01 0.01 0.01 0.01 0.01 0.02 0.03 0.05 0.05 0.04 0.04 0.05 0.05 0.06 0.06
0.03 0.03 0.03 0.03 0.04 0.03 0.02 0.02 0.02 0.02 0.02 0.03 0.03 0.03 0.03 0.02 0.02 0.01 0.01 0.02 0.02 0.02 0.02 0.01 0.01 0.01 0.01 0.02 0.01 0.02 0.05 0.05 0.04 0.03 0.02 0.02 0.02 0.03
0.03 0.03 0.02 0.02 0.03 0.02 0.02 0.02 0.02 0.01 0.01 0.02 0.02 0.02 0.02 0.01 0.01 0.01 0.01 0.01 0.02 0.02 0.02 0.01 0.01 0.01 0.02 0.02 0.03 0.01 0.03 0.05 0.04 0.03 0.02 0.01 0.01 0.02
0.01 0.01 0.02 0.02 0.03 0.03 0.02 0.02 0.02 0.02 0.02 0.01 0.01 0.01 0.01 0.01 0.01 0.01 0.01 0.01 0.01 0.01 0.02 0.02 0.02 0.02 0.02 0.03 0.03 0.02 0.02 0.03 0.04 0.04 0.04 0.03 0.02 0.02
0.01 0.00 0.01 0.02 0.03 0.03 0.02 0.01 0.01 0.01 0.00 0.00 0.00 0.00 0.00 0.01 0.01 0.01 0.01 0.01 0.01 0.01 0.01 0.02 0.02 0.01 0.01 0.02 0.03 0.03 0.04 0.03 0.03 0.03 0.03 0.03 0.03 0.02
0.01 0.00 0.01 0.01 0.01 0.01 0.01 0.00 0.00 0.00 0.00 0.00 0.00 0.00 0.00 0.00 0.01 0.01 0.01 0.01 0.01 0.01 0.01 0.01 0.01 0.01 0.02 0.03 0.04 0.04 0.03 0.02 0.03 0.02 0.02 0.03 0.03 0.03
0.00 0.00 0.00 0.00 0.00 0.00 0.00 0.00 0.00 0.00 0.00 0.00 0.00 0.00 0.00 0.01 0.01 0.01 0.01 0.01 0.01 0.01 0.01 0.01 0.02 0.01 0.02 0.02 0.03 0.03 0.03 0.03 0.03 0.03 0.04 0.05 0.06 0.06
MSLP
1014.46 1014.62 1014.79 1014.96 1015.14 1015.31 1015.45 1015.56 1015.63 1015.66 1015.64 1015.60 1015.56 1015.55 1015.59 1015.70 1015.90 1016.19 1016.55 1016.95 1017.36 1017.75 1018.08 1018.33 1018.50 1018.58 1018.60 1018.57 1018.51 1018.45 1018.39 1018.32 1018.25 1018.16 1018.03 1017.86 1017.64 1017.39
1014.34 1014.43 1014.52 1014.63 1014.75 1014.89 1015.03 1015.15 1015.25 1015.32 1015.36 1015.36 1015.36 1015.36 1015.40 1015.50 1015.66 1015.89 1016.20 1016.56 1016.94 1017.33 1017.68 1017.98 1018.20 1018.36 1018.45 1018.48 1018.48 1018.45 1018.41 1018.37 1018.31 1018.23 1018.14 1018.00 1017.83 1017.63
1014.23 1014.24 1014.27 1014.31 1014.39 1014.49 1014.62 1014.75 1014.89 1015.00 1015.09 1015.16 1015.20 1015.23 1015.27 1015.34 1015.46 1015.64 1015.87 1016.17 1016.51 1016.86 1017.20 1017.51 1017.78 1017.99 1018.14 1018.23 1018.28 1018.30 1018.30 1018.28 1018.25 1018.21 1018.15 1018.06 1017.95 1017.81
1014.07 1014.03 1014.01 1014.01 1014.05 1014.13 1014.26 1014.41 1014.57 1014.74 1014.88 1015.00 1015.08 1015.14 1015.19 1015.25 1015.32 1015.44 1015.60 1015.82 1016.08 1016.37 1016.68 1016.98 1017.26 1017.50 1017.69 1017.84 1017.94 1018.00 1018.04 1018.06 1018.06 1018.06 1018.04 1018.01 1017.96 1017.88
1013.85 1013.80 1013.75 1013.73 1013.75 1013.83 1013.95 1014.12 1014.32 1014.52 1014.71 1014.88 1015.00 1015.10 1015.16 1015.20 1015.24 1015.30 1015.39 1015.52 1015.70 1015.91 1016.16 1016.42 1016.68 1016.93 1017.15 1017.33 1017.47 1017.58 1017.66 1017.71 1017.75 1017.78 1017.81 1017.83 1017.83 1017.83
1013.59 1013.54 1013.49 1013.47 1013.50 1013.58 1013.72 1013.90 1014.11 1014.34 1014.56 1014.76 1014.93 1015.05 1015.12 1015.16 1015.19 1015.20 1015.23 1015.28 1015.37 1015.51 1015.68 1015.89 1016.11 1016.34 1016.56 1016.76 1016.93 1017.07 1017.19 1017.28 1017.35 1017.41 1017.47 1017.53 1017.59 1017.65
1013.31 1013.28 1013.26 1013.26 1013.30 1013.39 1013.53 1013.71 1013.92 1014.16 1014.39 1014.61 1014.80 1014.94 1015.03 1015.08 1015.10 1015.09 1015.08 1015.07 1015.10 1015.16 1015.27 1015.41 1015.58 1015.78 1015.98 1016.18 1016.37 1016.53 1016.67 1016.79 1016.90 1016.99 1017.08 1017.17 1017.26 1017.36
1013.06 1013.07 1013.08 1013.11 1013.16 1013.25 1013.38 1013.54 1013.74 1013.95 1014.17 1014.38 1014.57 1014.73 1014.84 1014.91 1014.94 1014.94 1014.91 1014.89 1014.87 1014.88 1014.93 1015.01 1015.13 1015.29 1015.47 1015.65 1015.84 1016.01 1016.17 1016.31 1016.43 1016.55 1016.65 1016.76 1016.88 1017.00
1012.88 1012.93 1012.97 1013.02 1013.09 1013.17 1013.27 1013.39 1013.53 1013.70 1013.88 1014.06 1014.24 1014.40 1014.54 1014.64 1014.70 1014.73 1014.72 1014.71 1014.68 1014.67 1014.68 1014.71 1014.79 1014.90 1015.04 1015.20 1015.37 1015.54 1015.71 1015.86 1016.00 1016.12 1016.24 1016.36 1016.48 1016.61
1012.82 1012.89 1012.96 1013.02 1013.08 1013.14 1013.19 1013.25 1013.33 1013.42 1013.54 1013.67 1013.82 1013.98 1014.13 1014.27 1014.38 1014.46 1014.51 1014.53 1014.53 1014.52 1014.51 1014.52 1014.55 1014.62 1014.72 1014.84 1014.99 1015.14 1015.30 1015.45 1015.60 1015.73 1015.85 1015.97 1016.09 1016.21
1012.88 1012.96 1013.04 1013.11 1013.15 1013.17 1013.17 1013.16 1013.16 1013.17 1013.21 1013.28 1013.39 1013.54 1013.70 1013.87 1014.04 1014.18 1014.29 1014.37 1014.41 1014.43 1014.42 1014.42 1014.42 1014.44 1014.49 1014.57 1014.68 1014.80 1014.94 1015.08 1015.23 1015.36 1015.48 1015.60 1015.71 1015.82
1013.06 1013.14 1013.22 1013.27 1013.30 1013.28 1013.23 1013.15 1013.07 1013.00 1012.96 1012.97 1013.03 1013.15 1013.32 1013.52 1013.73 1013.93 1014.11 1014.25 1014.34 1014.39 1014.40 1014.38 1014.36 1014.34 1014.33 1014.36 1014.42 1014.50 1014.61 1014.73 1014.86 1014.99 1015.11 1015.23 1015.33 1015.42
1013.32 1013.40 1013.46 1013.51 1013.51 1013.46 1013.37 1013.24 1013.10 1012.96 1012.86 1012.81 1012.83 1012.92 1013.07 1013.28 1013.53 1013.77 1014.00 1014.19 1014.32 1014.40 1014.42 1014.39 1014.34 1014.27 1014.22 1014.18 1014.18 1014.21 1014.28 1014.37 1014.49 1014.60 1014.72 1014.83 1014.92 1015.00
1013.66 1013.71 1013.76 1013.79 1013.79 1013.73 1013.62 1013.46 1013.28 1013.11 1012.96 1012.86 1012.83 1012.89 1013.02 1013.22 1013.47 1013.73 1013.98 1014.19 1014.35 1014.44 1014.46 1014.42 1014.33 1014.22 1014.11 1014.01 1013.95 1013.93 1013.94 1014.00 1014.08 1014.18 1014.29 1014.39 1014.49 1014.57
1014.03 1014.05 1014.09 1014.12 1014.11 1014.06 1013.96 1013.81 1013.62 1013.43 1013.26 1013.12 1013.06 1013.07 1013.17 1013.34 1013.56 1013.81 1014.05 1014.26 1014.41 1014.49 1014.50 1014.44 1014.32 1014.16 1014.00 1013.84 1013.72 1013.64 1013.60 1013.61 1013.66 1013.74 1013.84 1013.94 1014.03 1014.10
1014.44 1014.43 1014.46 1014.48 1014.49 1014.46 1014.39 1014.26 1014.09 1013.91 1013.73 1013.58 1013.48 1013.46 1013.51 1013.62 1013.79 1013.99 1014.19 1014.37 1014.50 1014.55 1014.53 1014.44 1014.29 1014.10 1013.89 1013.68 1013.50 1013.37 1013.28 1013.25 1013.26 1013.31 1013.39 1013.47 1013.56 1013.64
1014.90 1014.86 1014.87 1014.90 1014.92 1014.92 1014.88 1014.80 1014.67 1014.51 1014.34 1014.18 1014.05 1013.98 1013.97 1014.02 1014.12 1014.25 1014.39 1014.51 1014.59 1014.60 1014.55 1014.44 1014.26 1014.04 1013.79 1013.55 1013.33 1013.15 1013.02 1012.94 1012.91 1012.93 1012.99 1013.06 1013.13 1013.20
1015.42 1015.36 1015.36 1015.39 1015.42 1015.45 1015.44 1015.39 1015.30 1015.16 1015.00 1014.84 1014.69 1014.58 1014.50 1014.48 1014.50 1014.54 1014.60 1014.66 1014.68 1014.65 1014.57 1014.43 1014.23 1014.00 1013.74 1013.47 1013.23 1013.02 1012.86 1012.74 1012.68 1012.66 1012.68 1012.73 1012.78 1012.84
1016.03 1015.95 1015.93 1015.95 1015.99 1016.03 1016.04 1016.01 1015.94 1015.83 1015.68 1015.51 1015.33 1015.17 1015.04 1014.94 1014.88 1014.84 1014.82 1014.80 1014.77 1014.70 1014.59 1014.44 1014.24 1014.01 1013.75 1013.49 1013.24 1013.01 1012.83 1012.68 1012.59 1012.54 1012.52 1012.53 1012.55 1012.59
1016.73 1016.64 1016.60 1016.60 1016.63 1016.65 1016.66 1016.64 1016.58 1016.46 1016.31 1016.13 1015.92 1015.72 1015.54 1015.37 1015.24 1015.13 1015.04 1014.96 1014.87 1014.77 1014.65 1014.49 1014.30 1014.08 1013.84 1013.59 1013.35 1013.13 1012.93 1012.77 1012.65 1012.56 1012.51 1012.48 1012.47 1012.47
1017.50 1017.40 1017.34 1017.31 1017.31 1017.31 1017.29 1017.25 1017.17 1017.05 1016.88 1016.68 1016.45 1016.21 1015.98 1015.77 1015.57 1015.41 1015.26 1015.13 1015.01 1014.88 1014.75 1014.59 1014.42 1014.22 1014.01 1013.79 1013.57 1013.35 1013.16 1012.99 1012.85 1012.73 1012.65 1012.58 1012.53 1012.50
1018.28 1018.18 1018.10 1018.04 1018.00 1017.96 1017.90 1017.82 1017.71 1017.56 1017.37 1017.15 1016.90 1016.64 1016.38 1016.13 1015.89 1015.68 1015.50 1015.33 1015.19 1015.05 1014.90 1014.76 1014.60 1014.43 1014.24 1014.05 1013.85 1013.66 1013.47 1013.30 1013.15 1013.02 1012.91 1012.81 1012.73 1012.66
1019.01 1018.91 1018.82 1018.73 1018.65 1018.56 1018.46 1018.34 1018.19 1018.00 1017.79 1017.55 1017.29 1017.01 1016.73 1016.46 1016.20 1015.97 1015.76 1015.57 1015.41 1015.25 1015.11 1014.97 1014.82 1014.67 1014.52 1014.35 1014.18 1014.01 1013.84 1013.68 1013.53 1013.39 1013.26 1013.15 1013.05 1012.95
Thickness
5695 5694 5692 5691 5689 5687 5685 5681 5675 5672 5675 5683 5687 5691 5691 5691 5690 5688 5688 5686 5684 5684 5684 5684 5685 5686 5687 5689 5690 5692 5694 5696 5699 5701 5703 5705 5708 5710
5689 5687 5687 5686 5685 5683 5681 5679 5676 5673 5672 5680 5682 5687 5686 5686 5685 5686 5687 5685 5682 5681 5681 5681 5681 5682 5683 5684 5686 5687 5689 5691 5693 5695 5697 5698 5701 5703
5685 5684 5683 5683 5681 5680 5679 5677 5675 5673 5670 5675 5677 5680 5681 5682 5682 5682 5685 5683 5683 5680 5680 5679 5679 5679 5680 5681 5682 5683 5684 5685 5687 5689 5690 5692 5694 5697
5680 5680 5679 5679 5678 5677 5676 5675 5673 5673 5670 5669 5672 5672 5674 5677 5678 5679 5681 5682 5683 5681 5679 5678 5677 5677 5678 5678 5679 5680 5681 5681 5683 5684 5685 5687 5689 5691
5676 5676 5676 5675 5673 5673 5673 5672 5671 5671 5669 5667 5667 5667 5667 5669 5670 5673 5676 5678 5679 5679 5677 5676 5676 5676 5676 5677 5677 5677 5678 5678 5679 5680 5681 5682 5684 5685
5672 5672 5672 5671 5671 5671 5670 5670 5668 5667 5665 5664 5662 5662 5662 5662 5664 5666 5668 5672 5674 5677 5676 5676 5676 5675 5675 5676 5676 5676 5675 5675 5676 5676 5677 5678 5679 5681
5667 5668 5668 5665 5663 5664 5665 5665 5664 5663 5662 5660 5659 5658 5658 5656 5658 5661 5662 5666 5669 5673 5674 5676 5676 5677 5677 5676 5675 5675 5674 5674 5673 5673 5674 5674 5675 5676
5661 5662 5661 5659 5657 5655 5656 5656 5658 5659 5659 5658 5657 5656 5657 5656 5655 5654 5655 5657 5660 5667 5667 5670 5673 5675 5677 5678 5678 5676 5673 5672 5671 5670 5670 5670 5670 5671
5657 5656 5654 5655 5651 5656 5653 5650 5652 5652 5652 5655 5654 5654 5654 5654 5652 5651 5651 5652 5654 5658 5658 5662 5667 5668 5672 5675 5673 5672 5671 5669 5668 5667 5666 5666 5666 5665
5651 5651 5650 5651 5649 5650 5652 5652 5653 5652 5650 5651 5653 5653 5652 5652 5651 5650 5649 5648 5649 5649 5650 5653 5659 5661 5665 5667 5667 5666 5666 5665 5664 5663 5662 5661 5660 5660
5646 5645 5644 5645 5640 5639 5642 5645 5646 5648 5645 5644 5644 5645 5644 5645 5645 5646 5645 5643 5643 5645 5646 5646 5651 5653 5656 5659 5660 5659 5659 5659 5658 5657 5656 5655 5653 5652
5637 5637 5633 5634 5632 5632 5638 5641 5640 5643 5643 5643 5642 5642 5643 5643 5640 5643 5643 5641 5641 5641 5642 5641 5644 5644 5646 5650 5651 5652 5653 5652 5651 5650 5649 5648 5646 5645
5630 5630 5629 5625 5626 5627 5629 5634 5632 5634 5637 5638 5639 5639 5640 5640 5639 5639 5639 5638 5637 5636 5638 5636 5636 5636 5637 5640 5642 5643 5644 5645 5645 5645 5643 5641 5639 5638
5623 5623 5622 5618 5619 5620 5623 5622 5624 5626 5631 5632 5632 5632 5633 5633 5633 5634 5634 5633 5633 5633 5632 5631 5630 5629 5629 5630 5632 5635 5635 5635 5636 5636 5636 5634 5632 5630
5614 5610 5611 5611 5612 5615 5614 5615 5619 5623 5624 5624 5624 5624 5624 5625 5625 5625 5626 5626 5626 5625 5624 5623 5622 5622 5621 5621 5623 5625 5626 5627 5627 5626 5626 5625 5625 5624
5606 5603 5603 5604 5607 5607 5609 5612 5615 5615 5616 5617 5617 5617 5617 5617 5616 5617 5617 5617 5618 5617 5617 5616 5615 5614 5614 5614 5615 5616 5617 5618 5618 5617 5616 5615 5615 5614
5600 5601 5601 5601 5601 5601 5603 5604 5606 5608 5610 5611 5611 5611 5611 5611 5609 5609 5609 5610 5609 5609 5609 5608 5608 5607 5607 5608 5608 5610 5610 5609 5608 5607 5605 5605 5605 5605
5594 5593 5592 5592 5592 5593 5595 5596 5598 5600 5602 5604 5605 5605 5604 5603 5603 5602 5602 5602 5601 5601 5600 5599 5599 5599 5601 5603 5599 5600 5599 5598 5597 5596 5594 5593 5596 5597
5588 5586 5586 5586 5586 5587 5588 5589 5591 5593 5596 5597 5598 5598 5598 5597 5597 5596 5595 5595 5594 5593 5592 5591 5589 5588 5587 5588 5590 5585 5586 5586 5585 5584 5582 5581 5582 5584
5583 5582 5581 5582 5582 5582 5583 5585 5586 5588 5590 5591 5592 5592 5591 5591 5590 5589 5588 5586 5586 5585 5584 5582 5579 5576 5574 5573 5574 5574 5571 5571 5570 5570 5570 5570 5570 5569
5581 5579 5578 5579 5579 5579 5580 5581 5583 5584 5584 5585 5585 5584 5584 5584 5583 5582 5581 5577 5577 5577 5574 5572 5569 5563 5563 5562 5561 5562 5560 5555 5553 5553 5553 5553 5555 5556
5580 5579 5577 5577 5577 5577 5578 5579 5581 5581 5581 5581 5580 5580 5579 5578 5577 5577 5576 5574 5572 5570 5567 5564 5561 5557 5554 5551 5550 5548 5547 5544 5541 5538 5535 5533 5533 5536
5581 5579 5578 5577 5576 5577 5577 5578 5579 5579 5579 5578 5578 5577 5576 5576 5575 5573 5572 5569 5567 5564 5561 5558 5554 5550 5545 5542 5539 5537 5535 5533 5531 5528 5525 5519 5517 5515